Regional Weather Roundup
Issued by NWS

Home | Current Version | Previous Version | Text Only | Print | Product List | Glossary On
Versions: 1 2 3 4 5 6 7 8 9 10 11 12 13 14 15 16 17 18 19 20 21 22 23 24 25 26 27 28 29 30 31 32 33 34 35 36 37 38 39 40 41 42 43 44 45 46 47 48 49 50
483
ASUS44 KLIX 191410
RWRLA
LOUISIANA WEATHER ROUNDUP
NATIONAL WEATHER SERVICE NEW ORLEANS LA
900 AM CDT FRI SEP 19 2014

NOTE: "FAIR" INDICATES FEW OR NO CLOUDS BELOW 12,000 FEET WITH NO
      SIGNIFICANT WEATHER AND/OR OBSTRUCTIONS TO VISIBILITY.
      SKY/WX - SKY CONDITION AND SIGNIFICANT WEATHER.
      TMP - AIR TEMPERATURE.    DP   - DEWPOINT TEMPERATURE.
      RH  - RELATIVE HUMIDITY.  PRES - PRESSURE.
      HX  - HEAT INDEX.         WCI  - WIND CHILL INDEX.

*  THESE STATIONS ARE NOT NWS OR FAA STATIONS AND ARE NOT UNDER
   NWS QUALITY CONTROL.

LAZ040-048-061>063-065-066-069-191500-
SOUTHEAST LOUISIANA

CITY           SKY/WX    TMP DP  RH WIND       PRES   REMARKS
N.O. AUDUBON   NOT AVBL
N.O. INTL ARPT PTSUNNY   79  69  71 E13       29.95S
N.O. LAKEFRONT CLOUDY    78  71  79 E12       29.96R
N.O. DOWNTOWN* PTSUNNY   79  68  69 S3        29.96R
SLIDELL        PTSUNNY   76  70  82 NE5       29.96S
BATON ROUGE    MOSUNNY   76  71  85 E6        29.97R
BOOTHVILLE     CLOUDY    77  72  84 E10       29.94F
BELLE CHASSE   PTSUNNY   79  70  74 E7        29.94S
BOGALUSA*        N/A     77  69  77 E6        30.00R
GALLIANO*      NOT AVBL
NEW ROADS*     FAIR      76  71  85 E5        29.97R
GONZALES*      FAIR      76  75  94 E7        29.95S
HAMMOND*       MOSUNNY   77  68  73 E7        29.99S
HOUMA*         NOT AVBL
PORT FOURCHON* SUNNY     79  70  73 E13G20    29.96S

$$

LAZ041-044-053-054-191500-
SOUTHWEST LOUISIANA

CITY           SKY/WX    TMP DP  RH WIND       PRES   REMARKS
LAKE CHARLES   CLOUDY    74  72  93 E8        29.93R
LAFAYETTE      PTSUNNY   76  74  93 E7        29.95S
PATTERSON      MOSUNNY   75  73  94 E7        29.96S
SALT POINT       N/A     79  75  87 E6        29.93R
NEW IBERIA     PTSUNNY   77  73  87 E8        29.96R
CHENAULT AIRPK PTSUNNY   75  73  94 E6        29.94R

$$

LAZ027-028-191500-
CENTRAL LOUISIANA

CITY           SKY/WX    TMP DP  RH WIND       PRES   REMARKS
FORT POLK      PTSUNNY   74  70  87 E9        29.96R
ALEXANDRIA INT SUNNY     76  70  82 E8        29.95R
ALEXANDRIA     MOSUNNY   76  70  82 E3        29.97R

$$

LAZ001-002-191500-
NORTHWEST LOUISIANA

CITY           SKY/WX    TMP DP  RH WIND       PRES   REMARKS
SHREVEPORT     CLOUDY    76  72  87 VRB3      29.96R
BARKSDALE AFB  FOG       73  73 100 NE5       29.97F VSB 3/4
DTN SHREVEPORT CLOUDY    72  32  23 E3        29.97R HAZE

$$

LAZ014-016-191500-
NORTHEAST LOUISIANA

CITY           SKY/WX    TMP DP  RH WIND       PRES   REMARKS
MONROE         SUNNY     74  69  85 E3        30.00R
TALLULAH       SUNNY     75  68  78 E6        29.99R

$$




USA.gov is the U.S. government's official web portal to all federal, state and local government web resources and services.